Date,TemperatureHighF,TemperatureAvgF,TemperatureLowF,DewpointHighF,DewpointAvgF,DewpointLowF,HumidityHigh,HumidityAvg,HumidityLow,PressureMaxIn,PressureMinIn,WindSpeedMaxMPH,WindSpeedAvgMPH,GustSpeedMaxMPH,PrecipitationSumIn
2013-2-1,18.0,14.2,11.0,17.0,12.9,9.0,100,94,72,0.00,40.00,9,5,22,0.00
2013-2-2,21.0,15.5,10.0,20.0,13.9,7.0,99,92,85,0.00,40.00,7,4,15,0.00
2013-2-3,22.0,17.8,16.0,19.0,15.9,12.0,100,92,70,0.00,40.00,8,3,17,0.00
2013-2-4,26.0,19.8,15.0,22.0,17.2,10.0,99,89,72,0.00,40.00,6,2,17,0.00
2013-2-5,29.0,23.4,19.0,24.0,20.4,19.0,100,89,66,0.00,40.00,6,1,10,0.00
2013-2-6,30.0,23.0,13.0,27.0,16.2,10.0,99,77,42,0.00,40.00,10,3,17,0.00
2013-2-7,43.0,31.3,17.0,27.0,19.9,13.0,85,63,43,0.00,40.00,13,5,18,0.00
2013-2-8,37.0,29.3,22.0,37.0,28.1,21.0,99,95,75,0.00,40.00,15,9,30,0.00
2013-2-9,31.0,22.8,15.0,23.0,19.0,15.0,99,86,55,0.00,40.00,12,4,22,0.00
2013-2-10,45.0,33.5,20.0,22.0,16.8,13.0,87,54,28,0.00,40.00,16,7,28,0.00
2013-2-11,52.0,39.9,32.0,47.0,32.5,23.0,99,75,45,0.00,40.00,16,8,34,0.00
2013-2-12,32.0,28.8,22.0,26.0,24.0,22.0,100,81,71,0.00,40.00,9,3,22,0.00
2013-2-13,35.0,27.8,22.0,28.0,25.7,22.0,99,92,64,0.00,40.00,6,2,12,0.00
2013-2-14,37.0,31.7,24.0,37.0,30.8,24.0,99,96,76,0.00,40.00,14,6,25,0.00
2013-2-15,36.0,29.2,22.0,29.0,25.0,21.0,98,84,64,0.00,40.00,9,3,21,0.00
2013-2-16,29.0,22.6,17.0,23.0,16.9,6.0,100,81,42,0.00,40.00,6,2,11,0.00
2013-2-17,22.0,14.9,2.0,19.0,11.6,2.0,100,87,56,0.00,40.00,9,4,17,0.00
2013-2-18,44.0,23.5,2.0,28.0,13.5,2.0,100,69,44,0.00,40.00,15,7,26,0.00
2013-2-19,46.0,31.1,16.0,40.0,28.1,15.0,99,90,49,0.00,40.00,16,8,34,0.00
2013-2-20,21.0,17.3,15.0,16.0,13.6,9.0,99,85,65,0.00,40.00,9,4,22,0.00
2013-2-21,20.0,17.6,14.0,19.0,15.0,13.0,99,89,79,0.00,40.00,11,4,17,0.00
2013-2-22,36.0,27.3,16.0,36.0,26.4,16.0,99,96,83,0.00,40.00,16,6,26,0.00
2013-2-23,36.0,31.8,28.0,35.0,28.1,23.0,99,86,62,0.00,40.00,7,3,17,0.00
2013-2-24,33.0,27.7,24.0,28.0,24.6,22.0,99,88,68,0.00,40.00,7,2,14,0.00
2013-2-25,41.0,29.5,17.0,32.0,21.6,17.0,100,76,40,0.00,40.00,5,1,9,0.00
2013-2-26,38.0,32.4,28.0,35.0,26.6,22.0,100,79,62,0.00,40.00,12,5,27,0.00
2013-2-27,41.0,36.4,32.0,41.0,36.3,32.0,99,99,95,0.00,40.00,8,3,17,0.00
2013-2-28,33.0,31.5,29.0,33.0,31.5,29.0,99,99,99,0.00,40.00,11,5,21,0.00